| time (UTC) | temp F | wind direction | speed MPH | gust MPH | rain 1hr in | rain 24hr in | rain mn in | humidity % | barometer mb |
| 20260504050421 | 47 | 122 | 1.0 | 1.0 | 0.00 | 0.00 | 0.00 | 48 | 1016.8 |
| 20260504045918 | 46 | 123 | 0.0 | 0.0 | 0.00 | 0.00 | 0.00 | 50 | 1016.6 |
| 20260504045413 | 47 | 115 | 0.0 | 0.0 | 0.00 | 0.00 | 0.00 | 49 | 1016.8 |
| 20260504044910 | 47 | 115 | 0.0 | 0.0 | 0.00 | 0.00 | 0.00 | 48 | 1016.5 |
| 20260504044408 | 47 | 119 | 0.0 | 0.0 | 0.00 | 0.00 | 0.00 | 50 | 1016.5 |
| 20260504043905 | 47 | 118 | 0.0 | 0.0 | 0.00 | 0.00 | 0.00 | 52 | 1016.4 |
| 20260504043401 | 47 | 119 | 0.0 | 0.0 | 0.00 | 0.00 | 0.00 | 51 | 1016.2 |
| 20260504042859 | 46 | 122 | 0.0 | 0.0 | 0.00 | 0.00 | 0.00 | 52 | 1016.2 |
| 20260504042355 | 46 | 112 | 0.0 | 0.0 | 0.00 | 0.00 | 0.00 | 54 | 1016.4 |
| 20260504041851 | 46 | 99 | 0.0 | 1.0 | 0.00 | 0.00 | 0.00 | 54 | 1016.2 |
| 20260504041348 | 46 | 101 | 0.0 | 0.0 | 0.00 | 0.00 | 0.00 | 55 | 1016.4 |
| 20260504040844 | 46 | 101 | 0.0 | 0.0 | 0.00 | 0.00 | 0.00 | 56 | 1016.2 |
| 20260504040343 | 46 | 113 | 0.0 | 0.0 | 0.00 | 0.00 | 0.00 | 54 | 1016.4 |
| 20260504035838 | 46 | 113 | 0.0 | 0.0 | 0.00 | 0.00 | 0.00 | 54 | 1016.2 |
| 20260504035337 | 46 | 111 | 0.0 | 0.0 | 0.00 | 0.00 | 0.00 | 55 | 1016.4 |
| 20260504034832 | 46 | 121 | 0.0 | 0.0 | 0.00 | 0.00 | 0.00 | 55 | 1016.0 |
| 20260504034330 | 46 | 100 | 0.0 | 0.0 | 0.00 | 0.00 | 0.00 | 56 | 1016.4 |
| 20260504033827 | 46 | 112 | 0.0 | 0.0 | 0.00 | 0.00 | 0.00 | 55 | 1016.4 |
| 20260504033325 | 46 | 104 | 0.0 | 0.0 | 0.00 | 0.00 | 0.00 | 55 | 1016.4 |
| 20260504032821 | 46 | 119 | 0.0 | 0.0 | 0.00 | 0.00 | 0.00 | 53 | 1016.5 |
| 20260504032319 | 46 | 116 | 0.0 | 0.0 | 0.00 | 0.00 | 0.00 | 52 | 1016.2 |
| 20260504031815 | 46 | 116 | 0.0 | 0.0 | 0.00 | 0.00 | 0.00 | 51 | 1016.1 |
| 20260504031313 | 46 | 106 | 0.0 | 0.0 | 0.00 | 0.00 | 0.00 | 51 | 1016.2 |
| 20260504030809 | 46 | 113 | 0.0 | 0.0 | 0.00 | 0.00 | 0.00 | 52 | 1016.4 |
| 20260504030306 | 46 | 104 | 0.0 | 0.0 | 0.00 | 0.00 | 0.00 | 54 | 1016.5 |
| 20260504025801 | 46 | 107 | 0.0 | 0.0 | 0.00 | 0.00 | 0.00 | 51 | 1016.2 |
| 20260504025259 | 46 | 114 | 0.0 | 0.0 | 0.00 | 0.00 | 0.00 | 47 | 1016.2 |
| 20260504024755 | 46 | 114 | 0.0 | 0.0 | 0.00 | 0.00 | 0.00 | 48 | 1016.4 |
| 20260504024252 | 47 | 110 | 0.0 | 0.0 | 0.00 | 0.00 | 0.00 | 50 | 1016.4 |
| 20260504023749 | 46 | 115 | 0.0 | 0.0 | 0.00 | 0.00 | 0.00 | 47 | 1016.1 |
| 20260504023246 | 46 | 118 | 0.0 | 0.0 | 0.00 | 0.00 | 0.00 | 47 | 1016.4 |
| 20260504022742 | 46 | 119 | 0.0 | 1.0 | 0.00 | 0.00 | 0.00 | 49 | 1016.2 |
| 20260504022238 | 47 | 97 | 0.0 | 1.0 | 0.00 | 0.00 | 0.00 | 48 | 1016.2 |
| 20260504021735 | 47 | 123 | 0.0 | 0.0 | 0.00 | 0.00 | 0.00 | 45 | 1016.1 |
| 20260504021233 | 47 | 109 | 0.0 | 0.0 | 0.00 | 0.00 | 0.00 | 46 | 1016.0 |
| 20260504020729 | 47 | 124 | 0.0 | 0.0 | 0.00 | 0.00 | 0.00 | 45 | 1016.4 |
| 20260504020225 | 47 | 117 | 0.0 | 0.0 | 0.00 | 0.00 | 0.00 | 44 | 1016.2 |
| 20260504015722 | 47 | 112 | 0.0 | 0.0 | 0.00 | 0.00 | 0.00 | 44 | 1016.1 |
| 20260504015218 | 48 | 119 | 0.0 | 0.0 | 0.00 | 0.00 | 0.00 | 43 | 1015.9 |
| 20260504014714 | 49 | 121 | 0.0 | 0.0 | 0.00 | 0.00 | 0.00 | 41 | 1015.8 |
| 20260504014211 | 49 | 116 | 1.0 | 1.0 | 0.00 | 0.00 | 0.00 | 40 | 1015.9 |
| 20260504013709 | 50 | 134 | 0.0 | 0.0 | 0.00 | 0.00 | 0.00 | 40 | 1015.7 |
| 20260504013206 | 50 | 155 | 1.0 | 2.0 | 0.00 | 0.00 | 0.00 | 37 | 1016.0 |
| 20260504012703 | 51 | 110 | 1.0 | 1.0 | 0.00 | 0.00 | 0.00 | 37 | 1015.8 |
| 20260504012201 | 51 | 142 | 0.0 | 1.0 | 0.00 | 0.00 | 0.00 | 36 | 1015.6 |
| 20260504011658 | 51 | 144 | 1.0 | 1.0 | 0.00 | 0.00 | 0.00 | 36 | 1015.5 |
| 20260504011154 | 51 | 121 | 0.0 | 0.0 | 0.00 | 0.00 | 0.00 | 36 | 1015.6 |
| 20260504010650 | 51 | 127 | 1.0 | 1.0 | 0.00 | 0.00 | 0.00 | 35 | 1015.6 |
| 20260504010146 | 51 | 134 | 1.0 | 2.0 | 0.00 | 0.00 | 0.00 | 36 | 1015.5 |
| 20260504005643 | 51 | 191 | 0.0 | 1.0 | 0.00 | 0.00 | 0.00 | 36 | 1015.6 |
| 20260504005139 | 52 | 183 | 1.0 | 1.0 | 0.00 | 0.00 | 0.00 | 35 | 1015.5 |
| 20260504004638 | 52 | 126 | 0.0 | 1.0 | 0.00 | 0.00 | 0.00 | 35 | 1015.5 |
| 20260504004134 | 52 | 191 | 1.0 | 2.0 | 0.00 | 0.00 | 0.00 | 35 | 1015.4 |
| 20260504003631 | 52 | 111 | 4.0 | 6.0 | 0.00 | 0.00 | 0.00 | 35 | 1015.5 |
| 20260504003128 | 53 | 127 | 1.0 | 1.0 | 0.00 | 0.00 | 0.00 | 34 | 1015.4 |
| 20260504002624 | 53 | 107 | 2.0 | 3.0 | 0.00 | 0.00 | 0.00 | 34 | 1015.5 |
| 20260504002122 | 53 | 178 | 3.0 | 4.0 | 0.00 | 0.00 | 0.00 | 34 | 1015.4 |
| 20260504001620 | 53 | 217 | 3.0 | 4.0 | 0.00 | 0.00 | 0.00 | 33 | 1015.3 |
| 20260504001115 | 54 | 119 | 1.0 | 1.0 | 0.00 | 0.00 | 0.00 | 33 | 1015.4 |
| 20260504000613 | 54 | 206 | 5.0 | 6.0 | 0.00 | 0.00 | 0.00 | 33 | 1015.4 |
| 20260504000110 | 55 | 207 | 2.0 | 3.0 | 0.00 | 0.00 | 0.00 | 33 | 1015.5 |
| 20260503235608 | 55 | 227 | 4.0 | 6.0 | 0.00 | 0.00 | 0.00 | 32 | 1015.5 |
| 20260503235104 | 55 | 126 | 3.0 | 4.0 | 0.00 | 0.00 | 0.00 | 32 | 1015.3 |
| 20260503234602 | 56 | 225 | 5.0 | 6.0 | 0.00 | 0.00 | 0.00 | 31 | 1015.4 |
| 20260503234100 | 56 | 207 | 4.0 | 4.0 | 0.00 | 0.00 | 0.00 | 31 | 1015.5 |
| 20260503233556 | 57 | 205 | 4.0 | 4.0 | 0.00 | 0.00 | 0.00 | 31 | 1015.4 |
| 20260503233052 | 57 | 176 | 4.0 | 4.0 | 0.00 | 0.00 | 0.00 | 30 | 1015.5 |
| 20260503232549 | 58 | 196 | 4.0 | 6.0 | 0.00 | 0.00 | 0.00 | 31 | 1015.4 |
| 20260503232047 | 58 | 190 | 2.0 | 2.0 | 0.00 | 0.00 | 0.00 | 31 | 1015.4 |
| 20260503231545 | 58 | 289 | 4.0 | 4.0 | 0.00 | 0.00 | 0.00 | 29 | 1015.1 |
| 20260503231041 | 58 | 237 | 4.0 | 7.0 | 0.00 | 0.00 | 0.00 | 30 | 1015.1 |
| 20260503230537 | 58 | 209 | 4.0 | 4.0 | 0.00 | 0.00 | 0.00 | 28 | 1015.1 |
| 20260503230035 | 59 | 213 | 4.0 | 7.0 | 0.00 | 0.00 | 0.00 | 28 | 1015.1 |
| 20260503225532 | 59 | 234 | 4.0 | 4.0 | 0.00 | 0.00 | 0.00 | 30 | 1015.0 |
| 20260503225027 | 59 | 239 | 6.0 | 8.0 | 0.00 | 0.00 | 0.00 | 27 | 1015.0 |
| 20260503224525 | 59 | 238 | 4.0 | 4.0 | 0.00 | 0.00 | 0.00 | 30 | 1015.1 |
| 20260503224022 | 59 | 205 | 4.0 | 6.0 | 0.00 | 0.00 | 0.00 | 28 | 1015.1 |
| 20260503223520 | 60 | 214 | 7.0 | 9.0 | 0.00 | 0.00 | 0.00 | 27 | 1015.0 |
| 20260503223015 | 60 | 241 | 3.0 | 3.0 | 0.00 | 0.00 | 0.00 | 27 | 1015.0 |
| 20260503222514 | 59 | 295 | 4.0 | 6.0 | 0.00 | 0.00 | 0.00 | 28 | 1015.1 |
| 20260503222012 | 59 | 252 | 5.0 | 6.0 | 0.00 | 0.00 | 0.00 | 26 | 1015.2 |
| 20260503221510 | 59 | 233 | 8.0 | 9.0 | 0.00 | 0.00 | 0.00 | 26 | 1015.2 |
| 20260503221007 | 60 | 238 | 4.0 | 4.0 | 0.00 | 0.00 | 0.00 | 27 | 1015.2 |
| 20260503220503 | 60 | 228 | 4.0 | 4.0 | 0.00 | 0.00 | 0.00 | 28 | 1015.3 |
| 20260503215959 | 60 | 232 | 6.0 | 7.0 | 0.00 | 0.00 | 0.00 | 27 | 1015.2 |
| 20260503215456 | 60 | 159 | 1.0 | 1.0 | 0.00 | 0.00 | 0.00 | 27 | 1015.1 |
| 20260503214954 | 60 | 223 | 6.0 | 7.0 | 0.00 | 0.00 | 0.00 | 29 | 1015.1 |
| 20260503214452 | 60 | 223 | 8.0 | 10.0 | 0.00 | 0.00 | 0.00 | 27 | 1015.2 |
| 20260503213949 | 60 | 269 | 9.0 | 10.0 | 0.00 | 0.00 | 0.00 | 27 | 1015.1 |
| 20260503213447 | 60 | 258 | 5.0 | 6.0 | 0.00 | 0.00 | 0.00 | 28 | 1015.2 |
| 20260503212943 | 61 | 261 | 5.0 | 6.0 | 0.00 | 0.00 | 0.00 | 27 | 1015.2 |
| 20260503212441 | 60 | 128 | 2.0 | 3.0 | 0.00 | 0.00 | 0.00 | 31 | 1015.3 |
| 20260503211938 | 59 | 253 | 4.0 | 6.0 | 0.00 | 0.00 | 0.00 | 29 | 1015.4 |
| 20260503211435 | 59 | 235 | 5.0 | 7.0 | 0.00 | 0.00 | 0.00 | 28 | 1015.5 |
| 20260503210930 | 59 | 222 | 6.0 | 7.0 | 0.00 | 0.00 | 0.00 | 30 | 1015.2 |
| 20260503210427 | 59 | 198 | 6.0 | 7.0 | 0.00 | 0.00 | 0.00 | 30 | 1015.3 |
| 20260503205922 | 60 | 249 | 6.0 | 7.0 | 0.00 | 0.00 | 0.00 | 29 | 1015.4 |
| 20260503205419 | 60 | 199 | 4.0 | 6.0 | 0.00 | 0.00 | 0.00 | 30 | 1015.4 |
| 20260503204915 | 60 | 220 | 4.0 | 6.0 | 0.00 | 0.00 | 0.00 | 29 | 1015.4 |
| 20260503204413 | 60 | 196 | 2.0 | 3.0 | 0.00 | 0.00 | 0.00 | 30 | 1015.4 |
| 20260503203910 | 60 | 231 | 4.0 | 6.0 | 0.00 | 0.00 | 0.00 | 27 | 1015.5 |
| 20260503203407 | 60 | 196 | 2.0 | 2.0 | 0.00 | 0.00 | 0.00 | 29 | 1015.7 |
| 20260503202904 | 59 | 81 | 2.0 | 3.0 | 0.00 | 0.00 | 0.00 | 31 | 1015.8 |
| 20260503202402 | 59 | 224 | 4.0 | 6.0 | 0.00 | 0.00 | 0.00 | 32 | 1015.9 |
| 20260503201900 | 59 | 205 | 4.0 | 4.0 | 0.00 | 0.00 | 0.00 | 30 | 1015.8 |
| 20260503201357 | 60 | 260 | 6.0 | 7.0 | 0.00 | 0.00 | 0.00 | 31 | 1015.8 |
| 20260503200855 | 59 | 263 | 7.0 | 10.0 | 0.00 | 0.00 | 0.00 | 30 | 1015.8 |
| 20260503200350 | 58 | 326 | 3.0 | 4.0 | 0.00 | 0.00 | 0.00 | 26 | 1015.8 |
| 20260503195848 | 59 | 218 | 12.0 | 15.0 | 0.00 | 0.00 | 0.00 | 27 | 1015.7 |
| 20260503195344 | 59 | 249 | 5.0 | 7.0 | 0.00 | 0.00 | 0.00 | 28 | 1016.1 |
| 20260503194841 | 59 | 245 | 7.0 | 8.0 | 0.00 | 0.00 | 0.00 | 26 | 1016.4 |
| 20260503194337 | 59 | 268 | 4.0 | 7.0 | 0.00 | 0.00 | 0.00 | 27 | 1016.4 |
| 20260503193834 | 59 | 338 | 5.0 | 7.0 | 0.00 | 0.00 | 0.00 | 28 | 1016.2 |
| 20260503193330 | 59 | 211 | 3.0 | 4.0 | 0.00 | 0.00 | 0.00 | 30 | 1016.2 |
| 20260503192826 | 58 | 316 | 4.0 | 4.0 | 0.00 | 0.00 | 0.00 | 31 | 1016.2 |
| 20260503192321 | 57 | 242 | 3.0 | 6.0 | 0.00 | 0.00 | 0.00 | 31 | 1016.4 |
| 20260503191818 | 57 | 225 | 10.0 | 13.0 | 0.00 | 0.00 | 0.00 | 31 | 1016.4 |
| 20260503191315 | 57 | 246 | 9.0 | 9.0 | 0.00 | 0.00 | 0.00 | 28 | 1016.4 |
| 20260503190811 | 57 | 327 | 6.0 | 9.0 | 0.00 | 0.00 | 0.00 | 30 | 1016.6 |
| 20260503190309 | 57 | 354 | 4.0 | 6.0 | 0.00 | 0.00 | 0.00 | 34 | 1016.8 |
| 20260503185806 | 57 | 255 | 9.0 | 11.0 | 0.00 | 0.00 | 0.00 | 32 | 1016.8 |
| 20260503185301 | 56 | 339 | 5.0 | 8.0 | 0.00 | 0.00 | 0.00 | 35 | 1017.0 |
| 20260503184801 | 56 | 224 | 7.0 | 8.0 | 0.00 | 0.00 | 0.00 | 33 | 1016.8 |
| 20260503184258 | 56 | 220 | 9.0 | 13.0 | 0.00 | 0.00 | 0.00 | 31 | 1017.0 |
| 20260503183754 | 57 | 283 | 5.0 | 9.0 | 0.00 | 0.00 | 0.00 | 35 | 1017.1 |
| 20260503183252 | 56 | 271 | 7.0 | 9.0 | 0.00 | 0.00 | 0.00 | 32 | 1017.1 |
| 20260503182749 | 56 | 259 | 7.0 | 9.0 | 0.00 | 0.00 | 0.00 | 31 | 1017.1 |
| 20260503182248 | 55 | 232 | 9.0 | 11.0 | 0.00 | 0.00 | 0.00 | 33 | 1017.0 |
| 20260503181744 | 55 | 232 | 10.0 | 11.0 | 0.00 | 0.00 | 0.00 | 33 | 1017.1 |
| 20260503181241 | 55 | 206 | 6.0 | 7.0 | 0.00 | 0.00 | 0.00 | 32 | 1017.3 |
| 20260503180737 | 55 | 218 | 9.0 | 11.0 | 0.00 | 0.00 | 0.00 | 31 | 1017.2 |
| 20260503180236 | 55 | 212 | 3.0 | 6.0 | 0.00 | 0.00 | 0.00 | 35 | 1017.2 |
| 20260503175732 | 55 | 203 | 3.0 | 3.0 | 0.00 | 0.00 | 0.00 | 36 | 1017.4 |
| 20260503175230 | 54 | 242 | 7.0 | 9.0 | 0.00 | 0.00 | 0.00 | 34 | 1017.3 |
| 20260503174726 | 54 | 18 | 2.0 | 3.0 | 0.00 | 0.00 | 0.00 | 33 | 1017.4 |
| 20260503174224 | 54 | 215 | 9.0 | 10.0 | 0.00 | 0.00 | 0.00 | 37 | 1017.4 |
| 20260503173719 | 53 | 202 | 3.0 | 3.0 | 0.00 | 0.00 | 0.00 | 37 | 1017.6 |
| 20260503173215 | 54 | 213 | 8.0 | 9.0 | 0.00 | 0.00 | 0.00 | 34 | 1017.7 |
| 20260503172712 | 53 | 131 | 2.0 | 4.0 | 0.00 | 0.00 | 0.00 | 37 | 1017.6 |
| 20260503172209 | 54 | 225 | 5.0 | 6.0 | 0.00 | 0.00 | 0.00 | 33 | 1017.7 |
| 20260503171705 | 54 | 62 | 2.0 | 2.0 | 0.00 | 0.00 | 0.00 | 40 | 1017.7 |
| 20260503171203 | 53 | 241 | 6.0 | 9.0 | 0.00 | 0.00 | 0.00 | 36 | 1017.6 |
| 20260503170659 | 53 | 137 | 2.0 | 3.0 | 0.00 | 0.00 | 0.00 | 36 | 1018.0 |
| 20260503170157 | 52 | 218 | 9.0 | 13.0 | 0.00 | 0.00 | 0.00 | 36 | 1018.0 |
| 20260503160118 | 49 | 351 | 7.0 | 9.0 | 0.00 | 0.00 | 0.00 | 41 | 1018.8 |
| 20260503150548 | 47 | 232 | 2.0 | 3.0 | 0.00 | 0.00 | 0.00 | 45 | 1018.9 |
| 20260503130938 | 42 | 326 | 7.0 | 9.0 | 0.00 | 0.00 | 0.00 | 49 | 1018.7 |
| 20260503130436 | 42 | 347 | 7.0 | 8.0 | 0.00 | 0.00 | 0.00 | 50 | 1018.8 |
| 20260503110331 | 33 | 120 | 0.0 | 0.0 | 0.00 | 0.00 | 0.00 | 69 | 1017.9 |
| 20260503100257 | 34 | 105 | 0.0 | 0.0 | 0.00 | 0.00 | 0.00 | 64 | 1016.4 |
| 20260503090223 | 35 | 101 | 0.0 | 0.0 | 0.00 | 0.00 | 0.00 | 66 | 1016.0 |
| 20260503081150 | 35 | 198 | 2.0 | 2.0 | 0.00 | 0.00 | 0.00 | 68 | 1015.6 |
| 20260503080646 | 34 | 195 | 2.0 | 3.0 | 0.00 | 0.00 | 0.00 | 71 | 1015.6 |
| 20260503080143 | 33 | 269 | 3.0 | 3.0 | 0.00 | 0.00 | 0.00 | 76 | 1015.6 |
| 20260503072620 | 32 | 121 | 0.0 | 0.0 | 0.00 | 0.00 | 0.00 | 80 | 1015.3 |
| 20260503072117 | 32 | 108 | 0.0 | 0.0 | 0.00 | 0.00 | 0.00 | 79 | 1015.2 |
| 20260503071614 | 32 | 115 | 0.0 | 0.0 | 0.00 | 0.00 | 0.00 | 80 | 1015.3 |
| 20260503071111 | 32 | 76 | 1.0 | 1.0 | 0.00 | 0.00 | 0.00 | 79 | 1015.3 |
| 20260503070608 | 32 | 120 | 0.0 | 0.0 | 0.00 | 0.00 | 0.00 | 80 | 1015.1 |
| 20260503070106 | 32 | 92 | 0.0 | 0.0 | 0.00 | 0.00 | 0.00 | 79 | 1015.4 |
| 20260503055026 | 32 | 118 | 0.0 | 0.0 | 0.00 | 0.00 | 0.00 | 77 | 1015.3 |
| 20260503054522 | 33 | 109 | 0.0 | 0.0 | 0.00 | 0.00 | 0.00 | 76 | 1015.3 |
| 20260503054020 | 33 | 119 | 0.0 | 0.0 | 0.00 | 0.00 | 0.00 | 76 | 1015.2 |
| 20260503053517 | 33 | 116 | 0.0 | 0.0 | 0.00 | 0.00 | 0.00 | 77 | 1015.2 |
| 20260503053015 | 33 | 123 | 0.0 | 0.0 | 0.00 | 0.00 | 0.00 | 76 | 1015.2 |
| 20260503052511 | 33 | 99 | 0.0 | 0.0 | 0.00 | 0.00 | 0.00 | 77 | 1015.3 |
| 20260503052008 | 33 | 88 | 1.0 | 1.0 | 0.00 | 0.00 | 0.00 | 75 | 1015.1 |